This demonstration page uses our WeatherBlox Daily Observations layout. Learn more.

Left ArrowRight Arrow

40.97296, -117.73568

Hourly Observations for October 7, 2022

Temp ( °F °C ) Dew Point ( °F °C ) Humidity (%) Winds ( mph kmh ) Pressure ( in mb ) Visibility ( mi km ) Precip ( " mm )
12:56 am 00:56 Clear 41 5 19 -7.2 41 41 SSE 5 7 30.16 1021 10 16 0.00 0.00
1:56 am 01:56 Clear 39 3.9 18 -7.8 42 42 S 7 11 30.17 1022 10 16 0.00 0.00
2:56 am 02:56 Clear 39 3.9 19 -7.2 44 44 SE 6 9 30.18 1022 10 16 0.00 0.00
3:56 am 03:56 Clear 36 2.2 18 -7.8 47 47 ESE 5 7 30.19 1022 10 16 0.00 0.00
4:56 am 04:56 Clear 36 2.2 20 -6.7 52 52 SSE 5 7 30.20 1023 10 16 0.00 0.00
5:56 am 05:56 Clear 36 2.2 19 -7.2 50 50 S 8 13 30.22 1023 10 16 0.00 0.00
6:56 am 06:56 Sunny 35 1.7 20 -6.7 54 54 SE 6 9 30.25 1024 10 16 0.00 0.00
7:56 am 07:56 Sunny 43 6.1 22 -5.6 43 43 Calm 30.27 1025 10 16 0.00 0.00
8:56 am 08:56 Sunny 54 12.2 25 -3.9 32 32 Calm 30.26 1025 10 16 0.00 0.00
9:56 am 09:56 Sunny 65 18.3 29 -1.7 26 26 Calm 30.24 1024 10 16 0.00 0.00
10:56 am 10:56 Sunny 72 22.2 30 -1.1 21 21 N 6 9 30.23 1024 10 16 0.00 0.00
11:56 am 11:56 Sunny 77 25 29 -1.7 17 17 NE 6 9 30.21 1023 10 16 0.00 0.00
12:56 pm 12:56 Sunny 81 27.2 28 -2.2 14 14 NNW 7 11 30.18 1022 10 16 0.00 0.00
1:56 pm 13:56 Sunny 83 28.3 24 -4.4 11 11 W 5 7 30.15 1021 10 16 0.00 0.00
2:56 pm 14:56 Sunny 84 28.9 22 -5.6 10 10 WNW 9 15 30.13 1020 10 16 0.00 0.00
3:56 pm 15:56 Sunny 84 28.9 22 -5.6 10 10 W 7 11 30.12 1020 10 16 0.00 0.00
4:56 pm 16:56 Sunny 83 28.3 21 -6.1 10 10 NW 6 9 30.12 1020 10 16 0.00 0.00
5:56 pm 17:56 Sunny 80 26.7 22 -5.6 11 11 NW 5 7 30.13 1020 10 16 0.00 0.00
6:56 pm 18:56 Clear 71 21.7 21 -6.1 15 15 NNW 6 9 30.16 1021 10 16 0.00 0.00
7:56 pm 19:56 Clear 57 13.9 21 -6.1 24 24 Calm 30.19 1022 10 16 0.00 0.00
8:56 pm 20:56 Clear 52 11.1 18 -7.8 26 26 Calm 30.19 1022 10 16 0.00 0.00
9:56 pm 21:56 Clear 48 8.9 19 -7.2 31 31 Calm 30.17 1022 10 16 0.00 0.00
10:56 pm 22:56 Clear 49 9.4 21 -6.1 33 33 SSE 12 19 30.16 1021 10 16 0.00 0.00
11:56 pm 23:56 Clear 47 8.3 19 -7.2 32 32 Calm 30.16 1022 10 16 0.00 0.00

Powered by AerisWeather